Regional Weather Roundup
Issued by NWS Cleveland, OH

Home | Current Version | Previous Version | Graphics & Text | Print | Product List | Glossary On
Versions: 1 2 3 4 5 6 7 8 9 10 11 12 13 14 15 16 17 18 19 20 21 22 23 24 25 26 27 28 29 30 31 32 33 34 35 36 37 38 39 40 41 42 43 44 45 46 47 48 49 50
912
ASUS41 KCLE 241210
RWRCLE
OHIO REGIONAL WEATHER ROUNDUP
NATIONAL WEATHER SERVICE WILMINGTON, OH
700 AM EST SAT FEB 24 2018

NOTE: "FAIR" INDICATES FEW OR NO CLOUDS BELOW 12,000 FEET WITH NO
SIGNIFICANT WEATHER AND/OR OBSTRUCTIONS TO VISIBILITY.

OHZ001>008-015>018-024>027-034-035-043-044-241300-
   NORTHWEST OHIO

CITY           SKY/WX    TMP DP  RH WIND       PRES   REMARKS
DEFIANCE       LGT RAIN  37  33  85 NE9       30.19F
FINDLAY        LGT RAIN  40  35  83 NE12      30.18S
TOLEDO EXPRESS CLOUDY    38  35  89 NE9       30.20F
TOLEDO EXEC    CLOUDY    39  34  82 NE7       30.22F
LIMA           LGT RAIN  39  39 100 E9        30.17S
$$

OHZ009>014-019>023-028>033-038-089-241300-
   NORTHEAST OHIO

CITY           SKY/WX    TMP DP  RH WIND       PRES   REMARKS
CLE-HOPKINS    LGT RAIN  38  35  89 NE15      30.23F
CLE-LAKEFRONT  LGT RAIN  37  33  85 NE15      30.21F
CUY CO. ARPT   LGT RAIN  39  36  87 NE17      30.21
LORAIN-ELYRIA  LGT RAIN  37  31  78 NE15      30.21F
ASHTABULA      CLOUDY    37  32  82 N7        30.24R
AKRON-CANTON   LGT RAIN  43  39  86 NE6       30.18R
WOOSTER        LGT RAIN  41  39  93 NE6       30.20R
MANSFIELD      LGT RAIN  39  38  96 N8        30.18R
YOUNGSTOWN     LGT RAIN  41  39  93 N8        30.18S FOG
$$

OHZ042-051>053-060>062-070>072-077>081-241300-
  SOUTHWEST OHIO

CITY           SKY/WX    TMP DP  RH WIND       PRES   REMARKS
CINC-COVINGTON CLOUDY    48  47  96 NE14      30.11F
CINC-LUNKEN    LGT RAIN  49  48  97 NE10      30.13F
HAMILTON       CLOUDY    47  45  93 E8        30.14F
DAYTON         LGT RAIN  43  43 100 NE9       30.15F FOG
WRIGHT-PAT AFB LGT RAIN  45  43  93 NE6       30.16R FOG
DAYTON GENERAL LGT RAIN  46  43  89 NE12      30.13F
WILMINGTON     LGT RAIN  46  46 100 NE14      30.14R FOG
$$

OHZ036-037-039>041-045>050-054>059-063>069-073>076-082>088-241300-
  CENTRAL AND SOUTHEAST OHIO

CITY           SKY/WX    TMP DP  RH WIND       PRES   REMARKS
COLUMBUS       DRIZZLE   47  46  97 N6        30.15S
OSU AIRPORT    CLOUDY    45  45 100 N7        30.17S
BOLTON FIELD   CLOUDY    46  44  95 N6        30.18R
RICKENBACK AFB LGT RAIN  46  46 100 N6        30.16R
NEWARK         LGT RAIN  48  46  93 NE7       30.16R
MARION         LGT RAIN  41  39  93 E10       30.18S FOG
LANCASTER      CLOUDY    48  47  96 N8        30.15F
ZANESVILLE     CLOUDY    49  46  90 N3        30.16F
NEW PHILLY     LGT RAIN  47  43  86 NE7       30.18F
$$




USA.gov is the U.S. government's official web portal to all federal, state and local government web resources and services.